IRIDIUM 158

Last updated on Sun Jun 21 2026 00:03:14 GMT+0000 (Coordinated Universal Time)

1 43571U 18061C 26171.40289899 .00000061 00000+0 14606-4 0 9999 2 43571 86.3959 55.4133 0002195 83.0622 277.0823 14.34217742413823
UTC large
Height (km)
Speed (km/s)
/
Latitude / Longitude
Inclination (degrees)
Orbital Period (minutes)
Azimuth
Elevation
Range (km)
Doppler Factor

Next 0 passes for location: London (51.5072 / 0.1276)

No passes found over London.
IRIDIUM 158